Simultaneous Nadir Overpasses (SNOs) Predictions

Prediction of SNOs between FY3D and TERRA Satellite Orbit:

Table of predicted SNOs for the next 14.0 days since TLE Epoch: 8/10/2019
Index Date (FY3D) Time (FY3D) Lat,Lon (FY3D) SZA (FY3D ) Date (TERRA) Time (TERRA) Lat,Lon (TERRA) SZA (TERRA ) Distance(km) Time Diff (sec)
1 08/12/2019 02:43:38 -68.80, -41.78 126.37 08/12/2019 02:44:16 -68.83, -41.77 126.35 2.83 38
2 08/12/2019 03:34:21 68.65, 125.74 53.48 08/12/2019 03:33:44 68.67, 125.67 53.50 3.43 37
3 08/14/2019 19:00:04 -68.82, 74.09 125.55 08/14/2019 19:00:44 -68.80, 74.07 125.57 2.79 40
4 08/14/2019 19:50:47 68.67,-118.40 54.31 08/14/2019 19:50:11 68.69,-118.42 54.34 2.91 36
5 08/17/2019 11:16:31 -68.84,-170.05 124.69 08/17/2019 11:17:12 -68.81,-170.03 124.72 2.85 41
6 08/17/2019 12:07:14 68.68, -2.53 55.17 08/17/2019 12:06:39 68.70, -2.52 55.19 2.49 35
7 08/20/2019 03:32:57 -68.80, -54.12 123.86 08/20/2019 03:33:40 -68.82, -54.14 123.84 2.44 43
8 08/20/2019 04:23:41 68.70, 113.33 56.05 08/20/2019 04:23:07 68.71, 113.37 56.06 2.06 34
9 08/22/2019 19:49:24 -68.82, 61.74 122.95 08/22/2019 19:50:08 -68.83, 61.75 122.95 0.67 44
10 08/22/2019 20:40:08 68.72,-130.81 56.96 08/22/2019 20:39:35 68.72,-130.75 56.96 2.40 33




NCC Satellite Simultaneous Nadir Overpasses (SNOs) Prediction Service
